FW1480 Weather Reports


Display with metric or nautical units.
time (UTC)temp
F
wind
direction
speed
MPH
gust
MPH
rain 1hr
in
rain 24hr
in
rain mn
in
humidity
%
barometer
mb
20260906195147 65 4 0.0 1.0 0.00 0.00 0.00 86 1017.5
20260906194646 65 4 0.0 1.0 0.00 0.00 0.00 86 1017.5
20260906194146 65 4 0.0 2.0 0.00 0.00 0.00 84 1017.5
20260906193643 67 28 1.0 6.0 0.00 0.00 0.00 82 1017.4
20260906193144 68 74 1.0 6.0 0.00 0.00 0.00 78 1017.4
20260906192641 69 353 0.0 2.0 0.00 0.00 0.00 77 1017.4
20260906192142 69 33 0.0 2.0 0.00 0.00 0.00 78 1017.1
20260906191642 69 222 0.0 1.0 0.00 0.00 0.00 77 1017.2
20260906191143 69 53 0.0 3.0 0.00 0.00 0.00 77 1017.1
20260906190641 69 44 0.0 4.0 0.00 0.00 0.00 75 1017.2
20260906190140 69 146 0.0 4.0 0.00 0.00 0.00 77 1017.3
20260906185639 69 179 0.0 2.0 0.00 0.00 0.00 78 1017.4
20260906185138 69 240 0.0 2.0 0.00 0.00 0.00 78 1017.3
20260906184640 69 226 1.0 8.0 0.00 0.00 0.00 78 1017.4
20260906184139 69 226 1.0 8.0 0.00 0.00 0.00 77 1017.5
20260906183639 69 44 1.0 7.0 0.00 0.00 0.00 78 1017.4
20260906183139 69 274 0.0 1.0 0.00 0.00 0.00 77 1017.4
20260906182639 69 40 0.0 0.0 0.00 0.00 0.00 77 1017.5
20260906182140 69 40 0.0 0.0 0.00 0.00 0.00 77 1017.6
20260906181640 70 40 0.0 1.0 0.00 0.00 0.00 74 1017.5
20260906180140 72 199 0.0 1.0 0.00 0.00 0.00 72 1017.4
20260906175637 71 224 0.0 1.0 0.00 0.00 0.00 72 1017.4
20260906175137 71 226 0.0 1.0 0.00 0.00 0.00 74 1017.2
20260906174139 71 146 0.0 1.0 0.00 0.00 0.00 74 1017.5
20260906173639 71 193 0.0 1.0 0.00 0.00 0.00 74 1017.5
20260906173136 71 68 0.0 2.0 0.00 0.00 0.00 74 1017.6
20260906171629 69 154 0.0 1.0 0.00 0.00 0.00 79 1017.6
20260906171128 68 140 0.0 1.0 0.00 0.00 0.00 80 1017.7
20260906170627 68 340 0.0 1.0 0.00 0.00 0.00 79 1017.8
20260906170128 68 84 0.0 2.0 0.00 0.00 0.00 78 1017.9
20260906165628 68 84 1.0 4.0 0.00 0.00 0.00 75 1017.9
20260906165125 68 46 1.0 4.0 0.00 0.00 0.00 75 1017.8
20260906164625 69 97 0.0 4.0 0.00 0.00 0.00 75 1017.7
20260906164124 68 46 0.0 1.0 0.00 0.00 0.00 76 1017.8
20260906163624 69 53 0.0 2.0 0.00 0.00 0.00 77 1017.8
20260906163120 69 330 0.0 2.0 0.00 0.00 0.00 76 1017.9
20260906162617 69 119 0.0 1.0 0.00 0.00 0.00 76 1017.9
20260906162115 69 283 0.0 2.0 0.00 0.00 0.00 76 1017.9
20260906161615 69 243 0.0 4.0 0.00 0.00 0.00 77 1017.9
20260906161116 69 235 0.0 4.0 0.00 0.00 0.00 76 1018.0
20260906160614 69 59 0.0 2.0 0.00 0.00 0.00 78 1017.9
20260906160113 68 139 0.0 2.0 0.00 0.00 0.00 79 1018.0
20260906155614 68 250 1.0 5.0 0.00 0.00 0.00 80 1018.0
20260906154102 68 19 1.0 4.0 0.00 0.00 0.00 78 1018.0
20260906152056 67 314 0.0 5.0 0.00 0.00 0.00 79 1018.1
20260906151555 67 94 0.0 5.0 0.00 0.00 0.00 80 1018.2
20260906151057 0 0.0 0.0 0.00 0.00 0.00 1018.1
20260906150501 0 0.0 0.0 0.00 0.00 0.00 1018.2
20260906145959 0 0.0 0.0 0.00 0.00 0.00 1018.2
20260906145457 0 0.0 0.0 0.00 0.00 0.00 1018.2
20260906144905 0 0.0 0.0 0.00 0.00 0.00 1018.2
20260906144400 0 0.0 0.0 0.00 0.00 0.00 1018.1
20260906143856 0 0.0 0.0 0.00 0.00 0.00 1018.1
20260906143356 0 0.0 0.0 0.00 0.00 0.00 1018.1
20260906142759 0 0.0 0.0 0.00 0.00 0.00 1018.1
20260906142204 0 0.0 0.0 0.00 0.00 0.00 1018.0
20260906141100 0 0.0 0.0 0.00 0.00 0.00 1018.0
20260906140559 0 0.0 0.0 0.00 0.00 0.00 1017.9
20260906140055 0 0.0 0.0 0.00 0.00 0.00 1017.9
20260906135554 0 0.0 0.0 0.00 0.00 0.00 1017.9
20260906135053 0 0.0 0.0 0.00 0.00 0.00 1017.9
20260906134455 0 0.0 0.0 0.00 0.00 0.00 1017.9
20260906133955 0 0.0 0.0 0.00 0.00 0.00 1017.8
20260906133400 0 0.0 0.0 0.00 0.00 0.00 1017.8
20260906132858 0 0.0 0.0 0.00 0.00 0.00 1017.7
20260906131757 0 0.0 0.0 0.00 0.00 0.00 1017.8
20260906131255 0 0.0 0.0 0.00 0.00 0.00 1017.6
20260906130702 0 0.0 0.0 0.00 0.00 0.00 1017.6
20260906130156 0 0.0 0.0 0.00 0.00 0.00 1017.6
20260906125654 0 0.0 0.0 0.00 0.00 0.00 1017.6
20260906124559 0 0.0 0.0 0.00 0.00 0.00 1017.5
20260906124056 0 0.0 0.0 0.00 0.00 0.00 1017.4
20260906123501 0 0.0 0.0 0.00 0.00 0.00 1017.4
20260906122956 0 0.0 0.0 0.00 0.00 0.00 1017.4
20260906122359 0 0.0 0.0 0.00 0.00 0.00 1017.3
20260906121301 0 0.0 0.0 0.00 0.00 0.00 1017.1
20260906120800 0 0.0 0.0 0.00 0.00 0.00 1017.2
20260906120258 0 0.0 0.0 0.00 0.00 0.00 1017.2
20260906115754 0 0.0 0.0 0.00 0.00 0.00 1017.3
20260906115204 0 0.0 0.0 0.00 0.00 0.00 1017.2
20260906114153 0 0.0 0.0 0.00 0.00 0.00 1017.2
20260906113600 0 0.0 0.0 0.00 0.00 0.00 1016.9
20260906113007 0 0.0 0.0 0.00 0.00 0.00 1016.9
20260906112457 0 0.0 0.0 0.00 0.00 0.00 1017.1
20260906111954 0 0.0 0.0 0.00 0.00 0.00 1017.1
20260906111358 0 0.0 0.0 0.00 0.00 0.00 1017.0
20260906110852 0 0.0 0.0 0.00 0.00 0.00 1016.9
20260906110300 0 0.0 0.0 0.00 0.00 0.00 1016.8
20260906105257 0 0.0 0.0 0.00 0.00 0.00 1016.5
20260906104757 0 0.0 0.0 0.00 0.00 0.00 1016.3
20260906104207 0 0.0 0.0 0.00 0.00 0.00 1016.0
20260906103703 0 0.0 0.0 0.00 0.00 0.00 1016.0
20260906102653 0 0.0 0.0 0.00 0.00 0.00 1016.0
20260906101601 0 0.0 0.0 0.00 0.00 0.00 1016.0
20260906101057 0 0.0 0.0 0.00 0.00 0.00 1015.9
20260906100549 0 0.0 0.0 0.00 0.00 0.00 1016.0
20260906095958 0 0.0 0.0 0.00 0.00 0.00 1016.0
20260906095455 0 0.0 0.0 0.00 0.00 0.00 1015.8
20260906094906 0 0.0 0.0 0.00 0.00 0.00 1015.8
20260906094354 0 0.0 0.0 0.00 0.00 0.00 1015.7
20260906093758 0 0.0 0.0 0.00 0.00 0.00 1015.6
20260906093255 0 0.0 0.0 0.00 0.00 0.00 1015.6
20260906092706 0 0.0 0.0 0.00 0.00 0.00 1015.6
20260906092201 0 0.0 0.0 0.00 0.00 0.00 1015.5
20260906091659 0 0.0 0.0 0.00 0.00 0.00 1015.6
20260906091156 0 0.0 0.0 0.00 0.00 0.00 1015.4
20260906090654 0 0.0 0.0 0.00 0.00 0.00 1015.6
20260906085557 0 0.0 0.0 0.00 0.00 0.00 1015.4
20260906085056 0 0.0 0.0 0.00 0.00 0.00 1015.5
20260906083956 0 0.0 0.0 0.00 0.00 0.00 1015.3
20260906083406 0 0.0 0.0 0.00 0.00 0.00 1015.3
20260906082854 0 0.0 0.0 0.00 0.00 0.00 1015.2
20260906082354 0 0.0 0.0 0.00 0.00 0.00 1015.2
20260906081755 0 0.0 0.0 0.00 0.00 0.00 1015.3
20260906081206 0 0.0 0.0 0.00 0.00 0.00 1015.4
20260906080703 0 0.0 0.0 0.00 0.00 0.00 1015.3
20260906080154 0 0.0 0.0 0.00 0.00 0.00 1015.3
20260906075651 0 0.0 0.0 0.00 0.00 0.00 1015.2
20260906075100 0 0.0 0.0 0.00 0.00 0.00 1015.3
20260906073954 0 0.0 0.0 0.00 0.00 0.00 1015.3
20260906073400 0 0.0 0.0 0.00 0.00 0.00 1015.1
20260906072858 0 0.0 0.0 0.00 0.00 0.00 1015.2
20260906072306 0 0.0 0.0 0.00 0.00 0.00 1015.1
20260906071253 0 0.0 0.0 0.00 0.00 0.00 1015.2
20260906070703 0 0.0 0.0 0.00 0.00 0.00 1015.2
20260906070203 0 0.0 0.0 0.00 0.00 0.00 1015.1
20260906065153 0 0.0 0.0 0.00 0.00 0.00 1015.2
20260906064556 0 0.0 0.0 0.00 0.00 0.00 1015.1
20260906064055 0 0.0 0.0 0.00 0.00 0.00 1015.2
20260906062958 0 0.0 0.0 0.00 0.00 0.00 1015.2
20260906061901 0 0.0 0.0 0.00 0.00 0.00 1015.2
20260906061357 0 0.0 0.0 0.00 0.00 0.00 1015.2
20260906060852 0 0.0 0.0 0.00 0.00 0.00 1015.2
20260906060303 0 0.0 0.0 0.00 0.00 0.00 1015.0
20260906055801 0 0.0 0.0 0.00 0.00 0.00 1015.2
20260906055258 0 0.0 0.0 0.00 0.00 0.00 1015.5
20260906054755 0 0.0 0.0 0.00 0.00 0.00 1015.4
20260906054205 0 0.0 0.0 0.00 0.00 0.00 1015.3
20260906053703 0 0.0 0.0 0.00 0.00 0.00 1015.3
20260906053201 0 0.0 0.0 0.00 0.00 0.00 1015.3
20260906052659 0 0.0 0.0 0.00 0.00 0.00 1015.3
20260906052201 0 0.0 0.0 0.00 0.00 0.00 1015.3
20260906051658 0 0.0 0.0 0.00 0.00 0.00 1015.3
20260906051153 0 0.0 0.0 0.00 0.00 0.00 1015.2
20260906050655 0 0.0 0.0 0.00 0.00 0.00 1015.3
20260906050154 0 0.0 0.0 0.00 0.00 0.00 1015.3
20260906045007 0 0.0 0.0 0.00 0.00 0.00 1015.2
20260906044504 0 0.0 0.0 0.00 0.00 0.00 1015.4
20260906043951 0 0.0 0.0 0.00 0.00 0.00 1015.3
20260906043452 0 0.0 0.0 0.00 0.00 0.00 1015.3
20260906042404 0 0.0 0.0 0.00 0.00 0.00 1015.3
20260906041853 0 0.0 0.0 0.00 0.00 0.00 1015.2
20260906040755 0 0.0 0.0 0.00 0.00 0.00 1015.2
20260906040253 0 0.0 0.0 0.00 0.00 0.00 1015.2
20260906035159 0 0.0 0.0 0.00 0.00 0.00 1015.3
20260906034157 0 0.0 0.0 0.00 0.00 0.00 1015.0
20260906033605 0 0.0 0.0 0.00 0.00 0.00 1015.0
20260906033058 0 0.0 0.0 0.00 0.00 0.00 1014.9
20260906032502 0 0.0 0.0 0.00 0.00 0.00 1014.9
20260906032001 0 0.0 0.0 0.00 0.00 0.00 1014.7
20260906031458 0 0.0 0.0 0.00 0.00 0.00 1014.9
20260906030910 0 0.0 0.0 0.00 0.00 0.00 1014.9
20260906030400 0 0.0 0.0 0.00 0.00 0.00 1014.8
20260906025858 0 0.0 0.0 0.00 0.00 0.00 1014.7
20260906025306 0 0.0 0.0 0.00 0.00 0.00 1014.7
20260906024709 0 0.0 0.0 0.00 0.00 0.00 1014.9
20260906024206 0 0.0 0.0 0.00 0.00 0.00 1014.8
20260906023658 0 0.0 0.0 0.00 0.00 0.00 1014.7
20260906022027 0 0.0 0.0 0.00 0.00 0.00 1014.6
20260906021459 0 0.0 0.0 0.00 0.00 0.00 1014.6
20260906020959 0 0.0 0.0 0.00 0.00 0.00 1014.6
20260906020456 0 0.0 0.0 0.00 0.00 0.00 1014.5
20260906015902 0 0.0 0.0 0.00 0.00 0.00 1014.7
20260906015308 0 0.0 0.0 0.00 0.00 0.00 1014.6
20260906014750 0 0.0 0.0 0.00 0.00 0.00 1014.6
20260906014158 0 0.0 0.0 0.00 0.00 0.00 1014.5
20260906013657 0 0.0 0.0 0.00 0.00 0.00 1014.6
20260906013106 0 0.0 0.0 0.00 0.00 0.00 1014.6
20260906012059 0 0.0 0.0 0.00 0.00 0.00 1014.5
20260906011005 0 0.0 0.0 0.00 0.00 0.00 1014.5
20260906010502 0 0.0 0.0 0.00 0.00 0.00 1014.5
20260906005457 0 0.0 0.0 0.00 0.00 0.00 1014.2
20260906004956 0 127 0.0 1.0 0.00 0.00 0.00 1014.0
20260906004448 65 127 0.0 1.0 0.00 0.00 0.00 86 1014.0
20260906003940 65 127 0.0 1.0 0.00 0.00 0.00 86 1014.1
20260906003426 65 124 0.0 1.0 0.00 0.00 0.00 85 1014.1
20260906002924 65 54 0.0 1.0 0.00 0.00 0.00 85 1014.1
20260906002426 65 54 0.0 1.0 0.00 0.00 0.00 85 1014.0
20260906001925 66 54 0.0 1.0 0.00 0.00 0.00 85 1013.9
20260906001424 66 54 0.0 0.0 0.00 0.00 0.00 85 1014.0
20260905235926 66 54 0.0 0.0 0.00 0.00 0.00 84 1013.8
20260905234926 67 54 0.0 0.0 0.00 0.00 0.00 84 1013.9
20260905234425 67 54 0.0 0.0 0.00 0.00 0.00 84 1013.9
20260905233925 67 54 0.0 0.0 0.00 0.00 0.00 83 1013.8
20260905233424 67 54 0.0 0.0 0.00 0.00 0.00 83 1013.6
20260905232924 68 54 0.0 0.0 0.00 0.00 0.00 82 1013.7
20260905232426 68 54 0.0 0.0 0.00 0.00 0.00 81 1013.6
20260905230922 70 54 0.0 0.0 0.00 0.00 0.00 78 1013.6
20260905230421 70 54 0.0 0.0 0.00 0.00 0.00 77 1013.6
20260905225922 71 54 0.0 0.0 0.00 0.00 0.00 76 1013.5
20260905225421 71 54 0.0 1.0 0.00 0.00 0.00 74 1013.5
20260905224419 71 311 0.0 2.0 0.00 0.00 0.00 74 1013.5
20260905223918 71 120 0.0 2.0 0.00 0.00 0.00 76 1013.5
20260905223417 72 49 0.0 2.0 0.00 0.00 0.00 75 1013.4
20260905222919 72 131 0.0 1.0 0.00 0.00 0.00 75 1013.4
20260905221401 72 153 0.0 0.0 0.00 0.00 0.00 75 1013.3
20260905220854 72 153 0.0 0.0 0.00 0.00 0.00 73 1013.2
20260905220348 72 100 0.0 1.0 0.00 0.00 0.00 74 1013.1
20260905215842 73 100 0.0 1.0 0.00 0.00 0.00 73 1013.1
20260905214831 73 43 0.0 3.0 0.00 0.00 0.00 72 1013.1
20260905214324 73 20 0.0 0.0 0.00 0.00 0.00 73 1013.0
20260905213818 73 20 0.0 0.0 0.00 0.00 0.00 72 1013.0
20260905213312 73 20 0.0 3.0 0.00 0.00 0.00 71 1013.0
20260905212806 74 20 0.0 3.0 0.00 0.00 0.00 70 1012.9
20260905211755 74 267 0.0 3.0 0.00 0.00 0.00 70 1012.8
20260905210742 74 39 0.0 5.0 0.00 0.00 0.00 70 1012.8
20260905205731 73 64 1.0 5.0 0.00 0.00 0.00 72 1012.7
20260905205225 73 82 0.0 5.0 0.00 0.00 0.00 71 1012.6
20260905204719 73 70 0.0 3.0 0.00 0.00 0.00 73 1012.6
20260905204212 73 70 0.0 3.0 0.00 0.00 0.00 72 1012.6
20260905203707 73 82 0.0 2.0 0.00 0.00 0.00 73 1012.5
20260905203200 73 91 0.0 3.0 0.00 0.00 0.00 70 1012.5
20260905202655 73 78 0.0 4.0 0.00 0.00 0.00 70 1012.6
20260905202148 74 220 0.0 4.0 0.00 0.00 0.00 70 1012.5
20260905201643 74 72 1.0 4.0 0.00 0.00 0.00 69 1012.6
20260905200632 74 65 0.0 7.0 0.00 0.00 0.00 66 1012.5
20260905195619 75 214 0.0 3.0 0.00 0.00 0.00 70 1012.5